This is the latest recevied weather packets stored in our database for station/object N8QF-1. If no packets are shown the sender has not sent any weather packets the latest 1 day(s).
| Time | Temp. | Humidity | Pressure | Rain* | Wind** | Luminosity | Snow |
|---|---|---|---|---|---|---|---|
| 1777984211 | 14.44° C | 93% | 1008.5 hPa | 0.25 mm | 3.13 m/s, 181° | - | - |
| 1777983911 | 14.44° C | 93% | 1008.4 hPa | 0.25 mm | 1.79 m/s, 193° | - | - |
| 1777983610 | 14.44° C | 93% | 1008.5 hPa | 0.25 mm | 1.79 m/s, 184° | - | - |
| 1777983310 | 14.44° C | 93% | 1008.5 hPa | 0.25 mm | 2.68 m/s, 176° | - | - |
| 1777983015 | 14.44° C | 93% | 1008.5 hPa | 0.25 mm | 3.13 m/s, 198° | - | - |
| 1777982408 | 14.44° C | 92% | 1008.8 hPa | 0.25 mm | 2.24 m/s, 174° | - | - |
| 1777982107 | 14.44° C | 92% | 1008.5 hPa | 1.02 mm | 2.68 m/s, 187° | - | - |
| 1777981807 | 14.44° C | 92% | 1008.6 hPa | 1.02 mm | 2.68 m/s, 169° | - | - |
| 1777981506 | 14.44° C | 92% | 1008.5 hPa | 1.02 mm | 3.58 m/s, 184° | - | - |
| 1777981206 | 14.44° C | 92% | 1008.3 hPa | 1.02 mm | 2.24 m/s, 198° | - | - |
| 1777980905 | 14.44° C | 92% | 1008.2 hPa | 1.02 mm | 2.24 m/s, 186° | - | - |
| 1777980605 | 13.89° C | 92% | 1008.1 hPa | 1.02 mm | 2.24 m/s, 156° | - | - |
| 1777980304 | 13.89° C | 92% | 1008.1 hPa | 1.02 mm | 1.79 m/s, 186° | - | - |
| 1777980004 | 13.89° C | 92% | 1008 hPa | 1.02 mm | 3.13 m/s, 187° | - | - |
| 1777979703 | 13.89° C | 92% | 1007.9 hPa | 1.02 mm | 1.79 m/s, 218° | - | - |
| 1777979403 | 13.89° C | 92% | 1007.7 hPa | 1.02 mm | 1.34 m/s, 197° | - | - |
| 1777979102 | 13.89° C | 92% | 1007.4 hPa | 1.02 mm | 1.79 m/s, 181° | - | - |
| 1777978802 | 13.89° C | 92% | 1007.3 hPa | 1.02 mm | 2.68 m/s, 169° | - | - |
| 1777978501 | 13.89° C | 91% | 1007.4 hPa | 0.51 mm | 1.34 m/s, 170° | - | - |
| 1777978201 | 13.89° C | 91% | 1007.5 hPa | 0.51 mm | 0.89 m/s, 173° | - | - |
| 1777977900 | 13.89° C | 91% | 1007.6 hPa | 0.51 mm | 0.45 m/s, 211° | - | - |
| 1777977600 | 13.89° C | 91% | 1007.7 hPa | 0.51 mm | 0.89 m/s, 142° | - | - |
| 1777977299 | 13.89° C | 91% | 1008 hPa | 0.51 mm | 0.89 m/s, 156° | - | - |
| 1777976698 | 13.89° C | 91% | 1008.4 hPa | 0.51 mm | 1.79 m/s, 233° | - | - |
| 1777976096 | 14.44° C | 89% | 1008.7 hPa | 0.51 mm | 0.89 m/s, 203° | - | - |
* Rain latest hour (hover to see other rain measurements)
** Current wind speed in m/s (hover to see current wind gust speed)